(186559) = 2000 QJ220 = 2001 TL121 = 2002 YD1

Discovered at Anderson Mesa on 2002-12-27 by LONEOS.

Orbit

Orbit type: Main Belt

Note: WebGL enabled browser required.

epoch2023-09-13.0
epoch JD2460200.5
perihelion date2021-06-05.85571
perihelion JD2459371.35571
argument of perihelion (°)234.44731
ascending node (°)327.87014
inclination (°)12.24956
eccentricity0.2099083
perihelion distance (AU)2.1302927
Tisserand w.r.t. Jupiter3.3
ΔV w.r.t. Earth (km/sec)9.9
semimajor axis (AU)2.6962601
mean anomaly (°)184.58283
mean daily motion (°/day)0.22261850
aphelion distance (AU)3.262
period (years)4.43
P-vector [x]-0.91524279
P-vector [y]-0.26534774
P-vector [z]-0.30318511
Q-vector [x]0.38677855
Q-vector [y]-0.78939929
Q-vector [z]-0.47670863
absolute magnitude15.2
phase slope0.15
uncertainty0
referenceMPEC 2024-B94
observations used981
oppositions16
arc length (days)8554
first opposition used2000
last opposition used2024
residual rms (arc-secs)0.66
perturbers coarse indicatorM-v
perturbers precise indicator003Ek
first observation date used2000-08-21.0
last observation date used2024-01-22.0
computer nameMPCLINUX
JD of orbit computation2456966.758111
perihelion JD uncertainty (days)7.4600E-05
argument of perihelion uncertainty (°)2.4466E-05
ascending node uncertainty (°)1.7419E-05
inclination uncertainty (°)7.7805E-06
eccentricity uncertainty 5.7102E-08
perihelion distance uncertainty (AU)1.5177E-07
Minimum Orbit Intersection Distances (in AU)
for orbit epoch: 2460200.5, reference: E2024-B94
Mercury1.7108
Venus1.43467
Earth1.15387
Mars0.56537
Jupiter1.83206
Saturn6.12728
Uranus16.1339
Neptune26.6524

Observations

998 total observations over interval: 2000 08 21.26437 – 2024 01 22.293293
These data are available for download (format description).

Date (UT) J2000 RA J2000 Dec Magn Location Ref
2000 08 21.26437 22 03 55.75 -11 39 55.3 18.8 R 699 – Lowell Observatory-LONEOS MPS 18396
2000 08 21.28481 22 03 54.54 -11 39 58.1   699 – Lowell Observatory-LONEOS MPS 18396
2000 08 21.30525 22 03 53.39 -11 39 59.4   699 – Lowell Observatory-LONEOS MPS 18396
2000 08 21.32570 22 03 52.11 -11 40 01.6   699 – Lowell Observatory-LONEOS MPS 18396
2000 08 24.26741 22 01 00.79 -11 44 27.5 18.7   704 – Lincoln Laboratory ETS, New Mexico MPS 18396
2000 08 24.28009 22 01 00.11 -11 44 27.8 19.3   704 – Lincoln Laboratory ETS, New Mexico MPS 18396
2000 08 24.31830 22 00 57.84 -11 44 31.7 19.6   704 – Lincoln Laboratory ETS, New Mexico MPS 18396
2001 10 15.25259 02 08 20.71 +29 58 52.8 19.5   704 – Lincoln Laboratory ETS, New Mexico MPS 39529
2001 10 15.26848 02 08 19.77 +29 58 51.3 20.2   704 – Lincoln Laboratory ETS, New Mexico MPS 39529
2001 10 15.28434 02 08 18.79 +29 58 48.6 20.2   704 – Lincoln Laboratory ETS, New Mexico MPS 39529
2001 10 15.30020 02 08 17.97 +29 58 48.8 19.9   704 – Lincoln Laboratory ETS, New Mexico MPS 39529
2001 10 15.31606 02 08 16.98 +29 58 47.2 20.1   704 – Lincoln Laboratory ETS, New Mexico MPS 39529
2001 10 18.26423 02 05 29.03 +29 53 43.8 19.9   704 – Lincoln Laboratory ETS, New Mexico MPS 39529
2001 10 18.28016 02 05 28.14 +29 53 41.6 19.6   704 – Lincoln Laboratory ETS, New Mexico MPS 39529
2001 10 18.29605 02 05 27.18 +29 53 41.4 20.3   704 – Lincoln Laboratory ETS, New Mexico MPS 39529
2001 10 18.31193 02 05 26.20 +29 53 38.7 19.9   704 – Lincoln Laboratory ETS, New Mexico MPS 39529
2002 12 27.26003 08 55 59.37 +27 45 00.4 18.8 R 699 – Lowell Observatory-LONEOS MPS 70148
2002 12 27.28409 08 55 58.45 +27 45 03.4   699 – Lowell Observatory-LONEOS MPS 70148
2002 12 27.30811 08 55 57.60 +27 45 03.8   699 – Lowell Observatory-LONEOS MPS 70148
2002 12 27.33209 08 55 56.73 +27 45 06.6   699 – Lowell Observatory-LONEOS MPS 70148
2002 12 28.33073 08 55 20.62 +27 46 10.4 18.6 R 699 – Lowell Observatory-LONEOS MPS 70148
2002 12 28.35307 08 55 19.67 +27 46 11.3   699 – Lowell Observatory-LONEOS MPS 70148
2002 12 28.37542 08 55 18.80 +27 46 12.4   699 – Lowell Observatory-LONEOS MPS 70148
2002 12 28.39759 08 55 17.93 +27 46 14.0   699 – Lowell Observatory-LONEOS MPS 70148
2003 01 10.37421 08 44 43.64 +27 58 30.4 19.1   704 – Lincoln Laboratory ETS, New Mexico MPS 71707
2003 01 10.37435 08 44 43.68 +27 58 30.8 18.9   704 – Lincoln Laboratory ETS, New Mexico MPS 71707
2003 01 10.39037 08 44 42.67 +27 58 31.1 18.9   704 – Lincoln Laboratory ETS, New Mexico MPS 71707
2003 01 10.39050 08 44 42.66 +27 58 31.1 19.0   704 – Lincoln Laboratory ETS, New Mexico MPS 71708
2003 01 10.40661 08 44 41.64 +27 58 31.8 18.7   704 – Lincoln Laboratory ETS, New Mexico MPS 71708
2003 01 10.40674 08 44 41.69 +27 58 32.1 18.9   704 – Lincoln Laboratory ETS, New Mexico MPS 71708
2003 01 10.42458 08 44 40.54 +27 58 32.5 18.9   704 – Lincoln Laboratory ETS, New Mexico MPS 71708
2003 01 10.42478 08 44 40.55 +27 58 33.3 19.1   704 – Lincoln Laboratory ETS, New Mexico MPS 71708
2003 01 10.44124 08 44 39.55 +27 58 33.3 19.0   704 – Lincoln Laboratory ETS, New Mexico MPS 71708
2003 01 10.44136 08 44 39.60 +27 58 33.5 19.1   704 – Lincoln Laboratory ETS, New Mexico MPS 71708
2003 01 11.31095 08 43 47.73 +27 59 05.3 19.2   704 – Lincoln Laboratory ETS, New Mexico MPS 71708
2003 01 11.34127 08 43 45.81 +27 59 06.2 19.1   704 – Lincoln Laboratory ETS, New Mexico MPS 71708
2003 01 11.35628 08 43 44.88 +27 59 06.4 19.3   704 – Lincoln Laboratory ETS, New Mexico MPS 71708
2003 01 25.212760 08 28 13.802 +27 57 20.29 18.70 V 645 – Apache Point-Sloan Digital Sky Survey MPS 80150
2003 01 25.216232 08 28 13.550 +27 57 20.17 19.54   645 – Apache Point-Sloan Digital Sky Survey MPS 80150
2003 01 25.247840 08 28 11.225 +27 57 18.40   645 – Apache Point-Sloan Digital Sky Survey MPS 80150
2003 01 25.251312 08 28 10.969 +27 57 18.22   645 – Apache Point-Sloan Digital Sky Survey MPS 80150
2003 02 01.24913 08 19 53.60 +27 46 47.4 18.6   704 – Lincoln Laboratory ETS, New Mexico MPS 71708
2003 02 01.26436 08 19 52.51 +27 46 45.3 19.0   704 – Lincoln Laboratory ETS, New Mexico MPS 71708
2003 02 01.27961 08 19 51.43 +27 46 43.8 19.0   704 – Lincoln Laboratory ETS, New Mexico MPS 71708
2003 02 01.29492 08 19 50.29 +27 46 41.6 18.9   704 – Lincoln Laboratory ETS, New Mexico MPS 71708
2003 02 01.31027 08 19 49.19 +27 46 39.3 18.9   704 – Lincoln Laboratory ETS, New Mexico MPS 71708
2003 02 23.20105 07 58 45.16 +26 27 35.1 18.6 R 699 – Lowell Observatory-LONEOS MPS 74247
2003 02 23.22610 07 58 44.07 +26 27 27.6   699 – Lowell Observatory-LONEOS MPS 74247
2003 02 23.25119 07 58 43.04 +26 27 19.9   699 – Lowell Observatory-LONEOS MPS 74247
2003 02 23.28570 07 58 41.49 +26 27 09.4   699 – Lowell Observatory-LONEOS MPS 74247
2003 02 26.20578 07 56 52.99 +26 12 12.2 18.8   704 – Lincoln Laboratory ETS, New Mexico MPS 74247
2003 02 26.21985 07 56 52.47 +26 12 07.6 18.9   704 – Lincoln Laboratory ETS, New Mexico MPS 74247
2003 02 26.23273 07 56 51.99 +26 12 03.4 18.9   704 – Lincoln Laboratory ETS, New Mexico MPS 74247
2003 02 26.24557 07 56 51.53 +26 12 00.1 18.6   704 – Lincoln Laboratory ETS, New Mexico MPS 74247
2003 02 26.25860 07 56 51.02 +26 11 56.9 19.3   704 – Lincoln Laboratory ETS, New Mexico MPS 74247
2003 03 06.17664 07 53 25.76 +25 27 44.7 19.2 C 704 – Lincoln Laboratory ETS, New Mexico MPS 294321
2003 03 06.19026 07 53 25.60 +25 27 40.2 19.1 C 704 – Lincoln Laboratory ETS, New Mexico MPS 294321
2003 03 06.20398 07 53 25.37 +25 27 35.8 19.2 C 704 – Lincoln Laboratory ETS, New Mexico MPS 294321
2003 03 06.21722 07 53 25.00 +25 27 31.4 19.4 C 704 – Lincoln Laboratory ETS, New Mexico MPS 294321
2003 03 06.23064 07 53 24.79 +25 27 27.0 19.3 C 704 – Lincoln Laboratory ETS, New Mexico MPS 294321
2003 03 08.17404 07 52 55.09 +25 15 55.8 19.1   704 – Lincoln Laboratory ETS, New Mexico MPS 74247
2003 03 08.17464 07 52 55.15 +25 15 55.9 18.9   704 – Lincoln Laboratory ETS, New Mexico MPS 74247
2003 03 08.18776 07 52 54.75 +25 15 51.4 19.8   704 – Lincoln Laboratory ETS, New Mexico MPS 74247
2003 03 08.20102 07 52 54.60 +25 15 45.4 19.6   704 – Lincoln Laboratory ETS, New Mexico MPS 74247
2003 03 08.20168 07 52 54.66 +25 15 46.9 19.7   704 – Lincoln Laboratory ETS, New Mexico MPS 74247
2003 03 08.21427 07 52 54.49 +25 15 42.0 19.1   704 – Lincoln Laboratory ETS, New Mexico MPS 74247
2003 03 08.22782 07 52 54.20 +25 15 37.2 19.2   704 – Lincoln Laboratory ETS, New Mexico MPS 74247
2003 03 08.22843 07 52 54.30 +25 15 36.8 19.8   704 – Lincoln Laboratory ETS, New Mexico MPS 74247
2003 03 10.14306 07 52 33.03 +25 04 01.9 18.8 R 699 – Lowell Observatory-LONEOS MPS 74247
2003 03 10.16057 07 52 32.94 +25 03 55.7   699 – Lowell Observatory-LONEOS MPS 74247
2003 03 10.17803 07 52 32.74 +25 03 49.2   699 – Lowell Observatory-LONEOS MPS 74247
2003 03 10.19547 07 52 32.49 +25 03 43.0   699 – Lowell Observatory-LONEOS MPS 74247
2003 03 26.17748 07 54 26.82 +23 20 41.0 19.5   704 – Lincoln Laboratory ETS, New Mexico MPS 76164
2003 03 26.18914 07 54 26.88 +23 20 36.9 19.4   704 – Lincoln Laboratory ETS, New Mexico MPS 76164
2003 03 26.20079 07 54 27.16 +23 20 32.6 19.6   704 – Lincoln Laboratory ETS, New Mexico MPS 76164
2003 03 26.21245 07 54 27.58 +23 20 27.5 19.3   704 – Lincoln Laboratory ETS, New Mexico MPS 76164
2003 03 26.22431 07 54 27.83 +23 20 22.8 19.9   704 – Lincoln Laboratory ETS, New Mexico MPS 76164
2003 04 01.18520 07 57 13.63 +22 39 38.0 19.2   704 – Lincoln Laboratory ETS, New Mexico MPS 76164
2003 04 01.19683 07 57 13.98 +22 39 33.2 19.7   704 – Lincoln Laboratory ETS, New Mexico MPS 76164
2003 04 01.20903 07 57 14.38 +22 39 28.6 19.1   704 – Lincoln Laboratory ETS, New Mexico MPS 76164
2004 07 16.61360 19 19 11.03 -35 02 25.2 18.0 R E12 – Siding Spring Survey MPS 178386
2004 07 16.62303 19 19 10.31 -35 02 24.2 18.2 R E12 – Siding Spring Survey MPS 178386
2004 07 16.63245 19 19 09.68 -35 02 22.2 18.2 R E12 – Siding Spring Survey MPS 178386
2004 07 16.64184 19 19 09.03 -35 02 20.2 18.4 R E12 – Siding Spring Survey MPS 178386
2007 12 18.51237 13 01 08.40 -11 56 10.0 20.1 V 703 – Catalina Sky Survey MPS 231749
